User: anonymous   Login
Location: Unspecified
(0.0000°N, 0.0000°E)
Time: 02:59:53
(UTC+00:00)
Language:

ONEWEB-0311 - Orbit

View from above orbital plane
View from above orbital plane
View from above satellite
View from above satellite

Ground track
Ground track

The orbit is defined by the following mean orbital elements,

1 49097U          26145.31492832 +.00000000 +00000-0 +82765-4 0 00004
2 49097  87.9157  10.4112 0002216  90.7276 269.4110 13.17648034    09
Epoch (UTC): 25 May 2026 07:33:29
Eccentricity: 0.0002216
inclination: 87.9157°
perigee height: 1192 km
apogee height: 1195 km
right ascension of ascending node: 10.4112°
argument of perigee: 90.7276°
revolutions per day: 13.17648034
mean anomaly at epoch: 269.4110°

The dashed part of the orbit path shows where the satellite is in the earth's shadow,  

DLR